Погода в Тумботине

Россия / Нижегородская область     55°59′44″N   43°00′45″E
темп.,
°C
ветер,
м/с
пор.,
м/с
влажн.,
%
обл.,
%
осадки,
мм/ч
давл.,
гПа
погр.,
м
17 апреля, сб
сб1700:00+8всв61385100 0.0 1024393
03:00+6всв5128597 0.0 1025335
06:00+5всв5137968 0.0 1025348
09:00+9в7105939 0.0 1025526
12:00+13всв794813 0.0 1025942
15:00+14всв79427 0.0 10241136
18:00+12всв610435 0.0 1023601
21:00+8всв614604 0.0 1023439
18 апреля, вс
вс1800:00+5всв513733 0.0 1023365
03:00+4всв513755 0.0 1023377
06:00+4всв513803 0.0 1023397
09:00+9в711584 0.0 1023712
12:00+12в78438 0.0 10231357
15:00+13в6839100 0.0 10231921
18:00+11всв4951100 0.0 1023391
21:00+7всв7147594 0.0 1025630
19 апреля, пн
пн1900:00+5всв61278100 0.0 1026545
03:00+4всв51169100 0.0 1027534
06:00+3всв61164100 0.0 1027575
09:00+4в71058100 0.0 1028835
12:00+7в91146100 0.0 10271412
15:00+8в81141100 0.0 10271496
18:00+7в7114381 0.0 10271394
21:00+4в7144782 0.0 1028732
20 апреля, вт
вт2000:00+3в7145292 0.0 1028567
03:00+1в6145873 0.0 1028471
06:00+1в61463100 0.0 1028468
09:00+6вюв811575 0.0 1028801
12:00+9вюв7105299 0.0 10271282
15:00+11вюв8114212 0.0 10251697
18:00+9вюв81248100 0.0 10241287
21:00+7вюв81549100 0.0 1023882
21 апреля, ср
ср2100:00+6вюв91747100 0.0 1020885
03:00+5вюв101951100 0.0 1018947
06:00+3вюв102080100 1.9 1016905
09:00+3юв101991100 5.6 1015870
12:00+5юв101787100 0.9 1015937
15:00+6юв101887100 0.9 1014992
18:00+6юв101890100 0.1 1014995
21:00+7ююв71392100 0.4 1016779